[[{"header":{"parameterUnit":"m.s-1","parameterCategory":1,"la1":30.2991,"la2":30.254,"lo1":-89.0895,"lo2":-89.0444,"dy":0.0017,"dx":0.0017,"nx":28,"ny":28,"refTime":"2023-08-12T03:00:00:Z","depth":0,"parameterNumber":2,"parameterNumberName":"U-component_of_WINDS"},"data":[0,0,0,0,0,0,0,0,0,0,0,0,0,0,0,0,0,0,0,0,0,0,0,0,0,0,0,0,0,0,0,0,0,0,0,0,0,0,0,0,0,0,0,0,0,0,0,0,0,0,0,0,0,0,0,0,0,0,0.5939,0.5941,0,0.6077,0.6079,0.608,0.6147,0.6147,0.6147,0.6147,0.6287,0.629,0.6294,0,0,0,0,0,0,0,0,0,0,0,0,0,0.5732,0.5735,0.5939,0.5941,0.5943,0.6077,0.6079,0.6081,0.6147,0.6147,0.6147,0.6147,0.6286,0.629,0.6294,0,0,0,0,0,0,0,0,0,0,0,0,0,0.5841,0.5736,0.5939,0.5992,0.5998,0.6076,0.6079,0.6081,0.6147,0.6147,0.6147,0.6147,0.6284,0.629,0.6295,0.633,0,0,0.6312,0.6315,0,0,0,0,0,0,0,0,0.5834,0.5848,0.5983,0.5989,0.5996,0.6095,0.6057,0.6165,0.6147,0.6091,0.6147,0.6147,0.6223,0.6234,0.6259,0.6337,0.6343,0.6313,0.6316,0.6319,0.632,0,0,0,0,0,0,0,0.5827,0.5843,0.5994,0.5984,0.5992,0.6008,0.6024,0.6078,0.6155,0.6096,0.6101,0.6116,0.6226,0.6254,0.6263,0.6345,0.6313,0.6318,0.6321,0.6323,0.6458,0.6458,0,0,0,0,0,0,0.5811,0.5836,0.5989,0.5998,0.5913,0.6012,0.6029,0.6063,0.6155,0.6169,0.6116,0.6119,0.6244,0.6257,0.6268,0.6316,0.6318,0.6324,0.6327,0.6458,0.6458,0.6458,0,0,0,0,0,0,0.5806,0.5824,0.5984,0.5918,0.594,0.6016,0.6053,0.6066,0.6093,0.617,0.6184,0.613,0.6245,0.626,0.6314,0.6321,0.6326,0.6331,0.6457,0.6458,0.6458,0.641,0,0,0,0,0,0,0.58,0.5822,0.5837,0.5918,0.5943,0.6028,0.6053,0.6069,0.6103,0.6108,0.6187,0.62,0.6246,0.6306,0.632,0.6329,0.6336,0.6457,0.6457,0.6458,0.6412,0.6409,0.6407,0,0,0,0,0,0.5792,0.5817,0.5837,0.5855,0.5963,0.6028,0.6043,0.6095,0.6103,0.6118,0.6168,0.6198,0.6318,0.6311,0.6327,0.6338,0.6457,0.6457,0.6458,0.6413,0.6409,0.6407,0,0,0,0,0,0,0.5734,0.5829,0.5852,0.5904,0.5958,0.604,0.606,0.609,0.6142,0.6144,0.6207,0.6224,0.6272,0.6311,0.6301,0.6377,0.639,0.6394,0.635,0.6348,0.6345,0.6335,0.634,0,0,0,0,0,0.5727,0.5773,0.5853,0.5892,0.5918,0.5984,0.6014,0.605,0.6108,0.6131,0.6184,0.6238,0.6289,0.632,0.6371,0.6417,0.6435,0.6433,0.643,0.6428,0.6431,0.6458,0.6458,0.646,0.646,0.646,0,0,0.5714,0.5772,0.5797,0.5882,0.5927,0.5972,0.6003,0.6049,0.6083,0.6138,0.6192,0.6233,0.6298,0.6348,0.6373,0.6381,0.6434,0.6429,0.6426,0.643,0.6458,0.6458,0.6458,0.646,0.646,0.646,0,0,0.5713,0.5761,0.5799,0.5844,0.5913,0.5957,0.5965,0.6043,0.6072,0.6127,0.6169,0.621,0.6295,0.6339,0.6373,0.6387,0.6417,0.6402,0.6389,0.6415,0.6415,0.6415,0.642,0.6421,0.6404,0.6404,0.6404,0,0.5688,0.5758,0.5814,0.5858,0.5894,0.5946,0.5984,0.6024,0.6105,0.6129,0.6137,0.6245,0.6292,0.6353,0.6357,0.6382,0.6394,0.6394,0.641,0.6411,0.6412,0.6418,0.6419,0.6402,0.6402,0.6402,0.6403,0,0.5724,0.5772,0.5793,0.5871,0.5909,0.595,0.6011,0.6043,0.6075,0.6117,0.6173,0.6231,0.6294,0.6311,0.6343,0.6377,0.638,0.6398,0.6413,0.6409,0.6415,0.6418,0.6399,0.6399,0.64,0.6401,0,0,0.5691,0.5798,0.5805,0.5841,0.592,0.5958,0.6001,0.6063,0.6089,0.6142,0.6179,0.625,0.6267,0.6305,0.6342,0.6365,0.6372,0.6381,0.6383,0.6377,0.6413,0.6398,0.64,0.6392,0.6392,0.6393,0.6407,0,0.5701,0.5781,0.5831,0.589,0.5935,0.5984,0.6021,0.6073,0.6114,0.6157,0.6202,0.6251,0.627,0.6293,0.6318,0.6366,0.638,0.6366,0.6426,0.6428,0.6409,0.6403,0.6389,0.6399,0.641,0.641,0.6411,0,0.5724,0.5777,0.584,0.5914,0.5935,0.5967,0.6028,0.6069,0.6128,0.6156,0.6198,0.6235,0.6281,0.6291,0.6356,0.6345,0.6372,0.6399,0.6401,0.6409,0.6419,0.6411,0.6404,0.6406,0.6415,0.6415,0.6414,0,0.5693,0.578,0.583,0.5859,0.5946,0.5968,0.6005,0.6065,0.6098,0.6151,0.6173,0.623,0.6261,0.6304,0.6355,0.6358,0.6414,0.6428,0.6438,0.6437,0.6448,0.6447,0.6446,0.6465,0.6465,0.6465,0.6465,0,0.57,0.5736,0.5817,0.5848,0.589,0.5948,0.5988,0.6029,0.6081,0.612,0.6165,0.62,0.6266,0.6309,0.6349,0.6396,0.6409,0.6433,0.6443,0.6429,0.6426,0.6449,0.6449,0.6466,0.6466,0.6466,0.6465,0,0.5673,0.5729,0.5786,0.5864,0.5884,0.5912,0.5978,0.6009,0.6052,0.61,0.6115,0.6181,0.6234,0.6289,0.6361,0.6388,0.6433,0.6447,0.6413,0.6419,0.6426,0.6424,0.6439,0.6444,0.6459,0.6459,0.6459,0,0.5674,0.5703,0.5784,0.5814,0.585,0.5897,0.5932,0.5989,0.6023,0.6092,0.6115,0.6171,0.6219,0.63,0.6355,0.641,0.6426,0.6427,0.6434,0.6419,0.6426,0.6424,0.6427,0.6425,0.6424,0.6424,0.6424,0,0.5669,0.5695,0.5744,0.5802,0.5842,0.589,0.594,0.5961,0.6028,0.6064,0.6118,0.6156,0.6228,0.6283,0.6344,0.6382,0.6414,0.6421,0.6426,0.6412,0.6391,0.6402,0.6407,0.642,0.6421,0.6421,0.6421,0.6421,0.5656,0.5685,0.5746,0.5799,0.5842,0.5888,0.592,0.5967,0.6014,0.6078,0.6109,0.6163,0.6221,0.6306,0.6343,0.6386,0.6395,0.6403,0.6405,0.6406,0.6402,0.6384,0.6397,0.6398,0.6398,0.6398,0.6398,0,0.5654,0.5696,0.5743,0.5812,0.5853,0.5879,0.5936,0.5968,0.6015,0.6067,0.6113,0.6176,0.6229,0.6287,0.6344,0.6367,0.6383,0.638,0.6379,0.6387,0.6391,0.6381,0.6366,0.6366,0.6366,0.6366,0.6366,0.6366,0.5657,0.5707,0.574,0.5811,0.5853,0.5907,0.5937,0.5978,0.602,0.6088,0.6132,0.617,0.6224,0.6285,0.6335,0.6351,0.6369,0.6362,0.6382,0.6384,0.6387,0.6389,0.638,0.6366,0.6366,0.6375,0.6375,0.6375]},{"header":{"parameterUnit":"m.s-1","parameterCategory":1,"la1":30.2991,"la2":30.254,"lo1":-89.0895,"lo2":-89.0444,"dy":0.0017,"dx":0.0017,"nx":28,"ny":28,"refTime":"2023-08-12T03:00:00:Z","depth":0,"parameterNumber":3,"parameterNumberName":"V-component_of_WINDS"},"data":[0,0,0,0,0,0,0,0,0,0,0,0,0,0,0,0,0,0,0,0,0,0,0,0,0,0,0,0,0,0,0,0,0,0,0,0,0,0,0,0,0,0,0,0,0,0,0,0,0,0,0,0,0,0,0,0,0,0,4.8057,4.8057,0,4.7976,4.7975,4.7975,4.7889,4.7888,4.7886,4.7885,4.7797,4.7796,4.7795,0,0,0,0,0,0,0,0,0,0,0,0,0,4.8134,4.8133,4.8058,4.8057,4.8056,4.7977,4.7975,4.7974,4.7889,4.7887,4.7886,4.7885,4.7797,4.7796,4.7794,0,0,0,0,0,0,0,0,0,0,0,0,0,4.8082,4.8133,4.8058,4.8004,4.7998,4.7977,4.7975,4.7974,4.7889,4.7887,4.7886,4.7884,4.7798,4.7796,4.7794,4.7818,0,0,4.7789,4.7788,0,0,0,0,0,0,0,0,4.8085,4.8079,4.8013,4.8007,4.8001,4.7941,4.797,4.7922,4.789,4.793,4.7885,4.7883,4.7846,4.784,4.7829,4.7814,4.7811,4.7788,4.7787,4.7786,4.7786,0,0,0,0,0,0,0,4.8089,4.8082,4.8025,4.8012,4.8005,4.7982,4.7972,4.796,4.7899,4.7927,4.792,4.7912,4.7842,4.7831,4.7826,4.7809,4.7788,4.7787,4.7786,4.7785,4.781,4.7812,0,0,0,0,0,0,4.8101,4.8086,4.8028,4.8023,4.8039,4.7982,4.7971,4.7962,4.7899,4.7888,4.7914,4.7908,4.7835,4.7828,4.7822,4.7846,4.7786,4.7785,4.7784,4.7808,4.781,4.7812,0,0,0,0,0,0,4.8103,4.8097,4.8031,4.8052,4.8042,4.7983,4.7973,4.7961,4.7949,4.7889,4.7877,4.7913,4.7833,4.7825,4.782,4.7842,4.7784,4.7782,4.7806,4.7809,4.7811,4.7895,0,0,0,0,0,0,4.8106,4.8098,4.8108,4.8053,4.8042,4.8032,4.7974,4.7961,4.7947,4.7939,4.7886,4.7875,4.7831,4.7824,4.7819,4.7838,4.7781,4.7804,4.7807,4.781,4.789,4.79,4.7909,0,0,0,0,0,4.8109,4.8133,4.8109,4.8102,4.8053,4.8034,4.8027,4.7977,4.7949,4.7958,4.7919,4.7877,4.7841,4.7824,4.7817,4.7837,4.7802,4.7806,4.781,4.7885,4.7898,4.7908,0,0,0,0,0,0,4.819,4.8125,4.8097,4.8105,4.8076,4.8019,4.8028,4.7992,4.7968,4.7962,4.79,4.7888,4.7891,4.7863,4.7846,4.7857,4.7815,4.7818,4.7875,4.7886,4.7895,4.7901,4.7779,0,0,0,0,0,4.8209,4.82,4.8144,4.8156,4.8143,4.8089,4.8078,4.8043,4.8009,4.7996,4.7957,4.7924,4.7905,4.7894,4.7874,4.7885,4.7872,4.7896,4.7905,4.7913,4.7916,4.792,4.793,4.7825,4.7825,4.7825,0,0,4.8248,4.8211,4.8209,4.8172,4.8144,4.8136,4.8078,4.8071,4.8064,4.7994,4.7988,4.7958,4.7917,4.7921,4.7921,4.7898,4.7942,4.7918,4.7925,4.7924,4.7925,4.7935,4.7944,4.7828,4.7828,4.7827,0,0,4.8314,4.8286,4.8293,4.8268,4.8228,4.8192,4.8194,4.8143,4.8121,4.8114,4.8062,4.8051,4.802,4.7994,4.7976,4.8033,4.7993,4.8028,4.8077,4.8081,4.8089,4.8096,4.8116,4.8124,4.8031,4.8031,4.8032,0,4.8366,4.8352,4.8301,4.8298,4.8282,4.8221,4.8227,4.8204,4.816,4.815,4.8126,4.8086,4.8054,4.8051,4.8065,4.8053,4.8052,4.8033,4.8093,4.8099,4.8105,4.8123,4.8131,4.8036,4.8035,4.8035,4.8035,0,4.8419,4.841,4.842,4.8381,4.8366,4.8368,4.8316,4.8307,4.8273,4.8239,4.8232,4.8192,4.8163,4.8159,4.8125,4.8151,4.8138,4.8105,4.8061,4.812,4.8136,4.8143,4.8042,4.8041,4.8039,4.8038,0,0,4.8533,4.8466,4.8471,4.8452,4.8404,4.8395,4.8394,4.8367,4.836,4.8331,4.8327,4.8303,4.8272,4.8252,4.8215,4.8219,4.8266,4.8184,4.8182,4.82,4.8291,4.8316,4.8325,4.8239,4.824,4.8241,4.8294,0,4.859,4.8585,4.8539,4.8547,4.8537,4.8479,4.8477,4.8447,4.8415,4.8402,4.8365,4.8349,4.8309,4.8297,4.8299,4.826,4.8283,4.8255,4.8233,4.8233,4.8245,4.8333,4.836,4.8412,4.83,4.8301,4.8302,0,4.8656,4.8634,4.8641,4.8593,4.8588,4.8587,4.8558,4.8547,4.8511,4.8487,4.8466,4.8424,4.8417,4.8378,4.8367,4.835,4.8338,4.8318,4.8318,4.8314,4.8271,4.8331,4.8427,4.8435,4.8311,4.831,4.8309,0,4.8738,4.8709,4.871,4.8696,4.864,4.8641,4.8618,4.8581,4.8567,4.8542,4.8532,4.8506,4.8491,4.8471,4.8422,4.8398,4.8417,4.8373,4.8396,4.8397,4.8402,4.8402,4.8497,4.8396,4.8396,4.8395,4.8395,0,4.8807,4.8813,4.8746,4.8746,4.8751,4.8698,4.8704,4.8675,4.8643,4.8635,4.8582,4.8576,4.8513,4.8499,4.8461,4.8457,4.8451,4.8431,4.8421,4.8435,4.8438,4.8426,4.8421,4.8397,4.8397,4.8397,4.8396,0,4.8899,4.8854,4.8851,4.88,4.8787,4.8793,4.8748,4.8745,4.8711,4.8702,4.8697,4.8642,4.8623,4.8573,4.854,4.8514,4.8521,4.8502,4.8534,4.8527,4.8553,4.8551,4.8643,4.8652,4.8546,4.8547,4.8548,0,4.8945,4.8949,4.8899,4.8891,4.887,4.8858,4.8845,4.8792,4.878,4.874,4.8742,4.8719,4.8698,4.867,4.8626,4.8601,4.8581,4.8615,4.8576,4.8591,4.858,4.8581,4.858,4.8623,4.8624,4.8626,4.8626,0,4.9032,4.901,4.8994,4.897,4.8956,4.8934,4.8909,4.8905,4.8846,4.8835,4.8816,4.88,4.8767,4.8745,4.8713,4.8687,4.8647,4.8639,4.8643,4.8658,4.8676,4.8666,4.8556,4.8637,4.8636,4.8635,4.8635,4.8634,4.9102,4.9103,4.9068,4.9051,4.9027,4.9006,4.9001,4.8966,4.895,4.8921,4.8891,4.8875,4.8838,4.8791,4.8768,4.8754,4.8733,4.8738,4.874,4.8742,4.8748,4.8679,4.8748,4.8747,4.8747,4.8747,4.8747,0,4.9186,4.9161,4.9146,4.9114,4.9101,4.9066,4.9037,4.9027,4.9015,4.8985,4.8966,4.8944,4.8922,4.8877,4.8851,4.8848,4.8829,4.8843,4.8842,4.8837,4.8769,4.8768,4.8859,4.8859,4.8859,4.8859,4.8859,4.8859,4.9228,4.9227,4.9201,4.9188,4.9162,4.9148,4.9134,4.9113,4.9089,4.9068,4.905,4.9022,4.8985,4.8956,4.8934,4.8921,4.8914,4.8934,4.8915,4.8852,4.8841,4.8831,4.883,4.8933,4.8933,4.8983,4.8984,4.8984]}]]